Wind_Speed
11 15 17 19 28 36 26 23 25 26 25 28 29 24 18 15 12 9 6 8 10 12 10 14 15 12 14 18 16 12 23 30 32 31 29 22 23 22 20 20 18 17 18 19 19 19 18 18 17
6 8 10 14 19 30 26 23 29 27 26 28 28 24 21 18 15 12 8 7 9 8 10 13 14 14 14 12 15 15 14 22 26 25 24 22 21 20 18 18 17 17 17 16 19 18 17 18 18
3 4 5 10 14 13 15 16 28 32 31 28 24 25 23 25 23 16 7 6 4 7 10 11 12 14 14 13 12 13 14 18 20 25 20 22 21 19 18 18 17 17 16 17 18 18 17 17 17
6 8 5 1 13 12 2 13 20 27 33 27 24 20 22 24 27 23 22 12 5 3 7 9 10 12 14 14 13 12 10 14 17 20 19 18 18 18 17 17 16 16 16 16 17 17 17 16 16
4 5 14 9 13 13 5 4 23 27 27 26 25 21 23 26 29 30 25 24 9 8 5 3 6 12 14 14 16 15 12 13 14 16 16 16 16 17 17 17 17 16 16 15 16 15 16 16 14
6 11 14 3 8 9 6 9 22 14 22 24 23 23 24 29 30 27 28 22 22 11 7 6 5 9 14 15 15 15 14 13 18 16 17 16 14 14 15 16 16 16 17 16 15 15 15 14 13
6 8 11 9 11 8 11 11 5 9 12 25 22 21 23 26 24 25 24 21 21 22 12 5 6 7 11 15 16 15 15 15 19 18 17 14 13 11 11 13 15 14 14 16 16 15 14 13 12
6 8 9 11 6 15 12 12 7 13 4 22 23 23 26 24 23 22 20 21 19 22 23 10 7 9 11 15 19 18 17 16 16 19 18 15 14 11 11 11 12 14 12 14 15 15 14 12 12
10 10 12 11 14 14 9 7 7 9 7 7 26 25 30 21 22 22 16 18 15 18 22 18 6 9 10 12 13 17 18 17 17 16 16 16 15 15 13 13 10 13 14 13 14 15 14 13 13
12 12 9 12 6 6 4 2 23 21 23 11 21 27 22 22 26 19 16 17 17 16 23 24 9 8 9 9 10 13 16 16 15 16 16 16 17 16 14 14 13 13 13 13 13 13 14 14 13
14 11 15 15 13 9 4 2 3 21 16 11 15 23 25 19 23 20 16 16 17 17 23 27 22 13 7 6 5 4 8 14 17 17 17 17 17 17 18 20 16 13 14 14 15 14 13 13 12
16 18 17 15 14 10 6 7 10 13 14 18 11 16 24 21 17 19 14 12 16 19 21 22 24 18 13 9 7 5 4 7 12 15 17 17 17 18 18 19 19 17 17 16 14 16 14 13 13
16 19 21 19 16 11 9 5 10 18 7 18 14 12 22 24 17 14 10 11 11 16 18 19 18 18 19 16 11 7 4 2 5 10 15 17 18 16 18 18 19 18 17 18 16 15 15 16 15
17 17 18 17 15 14 13 10 9 3 17 19 18 17 21 15 15 9 6 10 7 10 13 17 17 18 16 15 14 10 8 6 5 12 13 15 16 15 18 17 17 18 18 18 18 17 16 15 16
17 16 15 16 15 7 8 1 4 8 7 12 17 20 22 5 23 4 6 8 10 5 9 10 13 15 16 14 12 11 8 10 10 3 13 17 17 17 16 17 18 18 20 20 18 20 18 17 16
17 17 15 18 20 17 14 9 14 13 9 17 15 22 25 23 16 16 9 10 11 7 6 8 10 12 14 16 14 11 10 7 6 10 8 13 17 15 16 17 19 21 23 21 21 20 20 18 18
21 18 15 15 18 21 22 15 13 16 13 17 16 20 22 25 33 22 12 8 13 10 7 8 8 9 11 12 16 10 9 9 6 4 6 5 8 7 11 12 15 19 19 20 24 24 23 20 19
21 20 18 16 17 18 19 19 16 16 18 20 23 14 23 28 33 31 20 15 10 14 11 8 10 9 8 10 10 10 10 8 8 7 5 5 5 6 6 7 13 18 19 20 23 24 25 24 22
20 21 21 20 23 26 22 17 13 17 26 23 20 26 22 25 20 35 26 14 18 11 15 11 10 12 8 10 10 9 7 9 9 8 5 3 1 5 6 5 8 12 16 20 22 24 24 26 27
22 26 26 24 23 25 23 18 13 12 28 32 31 26 24 25 18 28 26 18 21 23 14 15 13 13 14 14 9 12 9 5 8 10 10 6 2 1 3 6 8 11 13 15 18 19 25 27 27
24 29 28 28 23 19 25 20 17 18 17 38 36 35 34 29 29 25 27 23 25 27 29 15 14 15 16 12 11 8 10 10 5 7 9 8 6 1 3 6 9 11 14 15 14 20 24 26 26
25 20 22 23 26 27 22 25 23 25 22 17 40 41 42 44 40 38 34 33 32 32 35 35 17 17 19 16 15 11 10 11 10 5 6 8 7 5 6 7 7 9 13 15 17 17 20 25 26
21 20 21 25 28 29 15 25 23 21 23 21 17 23 40 52 49 48 45 42 44 45 41 27 23 23 23 19 19 16 11 13 14 10 6 6 9 11 10 8 9 9 13 10 18 22 22 23 24
28 27 27 26 26 24 20 18 21 23 25 25 26 23 21 27 51 47 47 50 54 49 34 29 27 28 25 24 22 18 14 15 14 13 12 9 9 10 13 11 9 8 7 14 20 21 24 25 23
26 31 36 33 27 26 18 19 18 23 20 25 28 27 25 26 38 53 48 47 52 48 34 31 31 31 28 28 26 21 17 18 18 15 14 12 11 11 11 11 8 6 5 6 7 17 21 21 19
25 31 36 41 38 35 22 24 23 26 31 32 29 34 30 31 21 40 58 62 55 53 38 35 36 34 30 33 27 26 23 19 19 17 18 13 12 11 12 14 10 6 4 2 1 8 13 14 17
29 32 37 40 37 36 29 31 28 28 30 28 32 34 39 39 21 23 46 54 51 52 41 39 42 40 32 36 35 31 28 25 23 22 19 17 15 11 11 13 12 9 4 2 1 4 5 7 9
29 34 34 34 40 38 35 32 34 32 32 36 33 33 33 28 28 17 36 48 51 45 44 44 38 36 34 42 42 36 34 31 29 28 24 22 20 19 13 13 13 10 6 6 7 5 6 7 9
22 31 33 35 37 40 43 38 37 35 29 35 36 31 28 25 25 21 33 39 48 45 46 46 46 45 43 47 40 40 36 36 36 31 29 27 24 24 19 17 15 13 10 8 9 11 12 12 12
29 32 32 34 37 40 42 43 40 34 34 28 22 23 26 23 26 20 23 38 42 45 53 56 58 54 46 50 46 45 44 41 40 38 32 32 30 28 25 22 19 17 15 11 10 9 10 11 10
Wind_Direction
86 79 68 62 52 43 38 41 27 30 27 39 37 40 42 29 33 53 33 49 65 85 105 102 98 87 85 86 97 133 153 160 169 164 155 152 157 153 152 146 146 145 141 143 150 147 142 135 134
96 74 100 68 52 58 52 44 27 21 30 36 37 37 39 36 35 36 36 36 57 88 105 113 115 107 108 120 111 115 129 159 157 153 158 164 153 157 150 145 148 147 149 147 151 149 147 144 137
77 336 85 97 57 77 79 42 33 21 19 25 35 32 28 36 40 41 33 44 32 78 100 111 124 124 120 136 137 128 131 132 151 147 163 162 158 160 156 151 153 150 151 156 158 155 152 147 146
301 329 95 72 79 62 154 65 46 22 11 18 24 12 15 18 33 31 35 51 99 69 74 124 140 143 142 139 151 163 164 149 152 155 162 161 160 162 162 156 155 154 155 159 164 160 157 153 152
296 304 319 115 92 157 193 151 70 25 9 8 19 23 24 24 23 19 21 31 62 125 123 96 149 161 153 156 153 158 159 172 167 166 162 162 167 168 166 166 160 159 160 162 166 167 165 160 160
301 306 321 137 126 183 182 118 57 23 359 354 10 6 24 21 22 22 14 23 43 73 118 149 174 165 170 165 163 159 158 161 178 175 170 170 170 173 170 168 167 166 164 167 170 171 170 168 170
3 320 345 161 151 136 76 14 102 12 2 350 351 1 16 16 22 16 18 21 39 41 46 145 159 170 168 177 173 170 165 159 169 186 174 170 173 171 173 175 173 176 172 173 178 172 176 168 169
323 308 306 308 142 107 68 24 341 304 47 354 348 1 3 352 16 17 18 27 25 35 34 46 167 170 170 172 180 174 173 172 174 177 191 187 180 174 180 183 181 183 184 184 187 180 171 173 171
349 310 305 358 64 15 92 53 306 325 275 34 8 4 8 0 13 12 17 36 28 33 31 31 140 173 174 168 178 185 180 179 179 182 184 192 193 189 188 190 181 190 193 192 195 191 178 185 180
7 337 323 353 12 91 77 158 345 321 320 10 10 358 349 2 356 3 13 23 28 37 42 42 80 147 168 167 165 180 193 190 187 188 187 192 197 202 199 200 197 194 194 199 210 203 194 190 189
350 342 349 2 18 44 205 208 314 301 327 12 13 338 326 343 7 2 9 14 23 42 48 51 65 90 119 130 139 156 183 198 201 197 191 197 194 200 202 204 208 209 207 199 208 216 207 205 198
334 331 337 345 353 4 343 263 238 268 312 316 320 312 308 326 344 349 3 11 19 41 50 53 66 75 85 100 109 124 164 189 204 210 206 206 202 203 207 208 214 214 211 215 206 215 215 214 212
329 331 331 335 344 335 310 264 226 249 267 279 273 282 290 304 330 345 1 9 23 35 42 54 60 69 73 74 80 86 100 156 217 228 221 215 217 213 212 212 218 219 218 221 216 216 218 222 221
319 332 330 337 331 330 322 305 288 32 230 266 267 273 284 295 309 335 3 7 10 25 36 42 47 56 60 60 62 62 56 18 203 221 215 229 225 218 206 216 225 227 230 224 226 224 223 227 229
325 331 328 312 307 288 295 27 113 50 299 275 281 269 284 322 301 243 318 330 346 11 15 28 37 29 42 41 50 52 63 62 57 188 211 218 212 217 223 227 225 226 231 228 231 231 230 230 231
311 322 327 315 307 294 298 219 175 182 225 258 282 263 266 292 292 299 254 295 314 330 317 349 17 34 38 35 29 42 53 70 73 54 191 227 213 218 220 221 230 228 227 233 231 231 234 237 239
305 312 313 307 290 288 293 306 252 205 212 249 236 264 279 293 285 296 246 272 277 294 295 294 314 355 4 13 24 42 43 51 69 79 91 114 178 202 229 231 240 240 235 233 232 231 229 226 232
303 307 304 299 289 295 303 308 293 232 206 239 238 254 285 291 291 289 287 292 304 263 268 284 297 309 347 346 10 34 53 47 66 80 97 129 147 165 199 210 224 232 232 233 234 232 238 235 230
298 290 296 304 311 315 313 310 299 265 214 228 258 248 255 264 285 278 281 277 280 252 258 262 276 293 310 315 331 2 58 56 46 61 78 72 140 181 193 206 221 231 228 228 229 231 235 240 238
302 307 313 319 317 314 314 315 296 281 229 221 224 235 253 256 262 272 262 259 271 279 256 242 260 280 296 285 302 319 331 28 51 34 32 32 31 145 209 245 239 242 241 240 232 231 230 232 238
318 321 321 320 314 316 308 320 305 287 256 223 229 227 237 255 259 253 256 251 260 268 276 240 248 271 273 268 280 289 301 300 342 39 25 28 22 342 235 240 251 257 251 247 243 238 233 237 239
319 304 304 308 313 318 312 300 292 284 292 237 231 234 231 236 246 246 249 254 256 261 263 278 233 241 259 252 262 266 287 305 312 334 30 8 13 338 283 267 274 259 251 253 260 260 250 246 245
315 307 308 315 315 309 296 287 298 300 297 301 283 255 244 248 244 244 245 249 253 251 257 256 217 227 243 252 248 257 272 289 304 299 318 356 357 353 325 309 296 268 262 242 254 241 243 241 247
314 311 310 312 305 308 307 291 301 325 323 310 330 308 299 273 252 252 248 240 248 248 241 215 211 227 232 246 242 248 266 281 293 295 299 314 346 354 347 321 315 284 263 279 269 235 235 242 247
322 320 310 305 301 314 298 285 293 314 308 315 297 302 279 273 250 240 242 240 245 238 226 230 213 224 230 241 241 244 252 272 286 293 294 299 311 338 337 325 336 322 295 292 276 235 215 232 238
314 306 303 306 309 313 310 290 294 288 292 306 308 305 314 311 265 246 236 231 231 232 225 225 215 217 230 239 241 241 248 258 271 283 284 296 301 317 330 325 305 310 345 9 126 174 204 213 223
302 292 293 295 298 301 306 295 285 283 294 303 298 300 312 308 302 252 226 236 231 234 220 218 213 216 225 232 228 239 245 251 262 263 274 283 287 285 301 310 301 271 265 291 225 220 219 236 247
288 289 286 286 291 300 296 294 285 282 288 274 281 298 307 292 302 269 230 229 234 226 222 217 214 207 221 231 220 229 236 248 250 256 261 268 278 280 281 295 298 293 267 244 253 260 258 248 250
272 275 280 291 284 291 295 295 296 300 296 291 285 290 299 299 291 298 240 225 227 232 232 219 212 213 216 224 218 223 225 239 250 248 254 265 270 275 280 283 290 293 283 265 252 249 252 253 251
286 288 291 295 285 279 283 290 294 296 288 298 294 289 306 293 282 279 270 243 241 243 238 222 214 217 218 224 215 223 228 229 240 247 245 256 260 265 265 268 277 285 275 270 259 254 254 250 239
Height
5907 5904 5902 5902 5902 5898 5898 5901 5899 5899 5898 5894 5889 5885 5883 5881 5880 5879 5874 5872 5868 5866 5869 5867 5867 5868 5868 5869 5869 5871 5873 5877 5881 5884 5887 5892 5894 5897 5898 5898 5900 5902 5902 5902 5906 5906 5908 5908 5909
5907 5904 5898 5903 5901 5897 5901 5902 5900 5898 5898 5898 5895 5889 5886 5885 5883 5880 5877 5874 5871 5870 5869 5868 5870 5871 5871 5873 5874 5876 5877 5879 5882 5886 5889 5893 5892 5898 5899 5899 5901 5903 5904 5905 5907 5909 5910 5911 5910
5909 5905 5899 5902 5902 5897 5897 5901 5901 5900 5898 5898 5899 5896 5891 5889 5885 5882 5881 5878 5874 5872 5870 5869 5870 5871 5873 5875 5877 5879 5881 5882 5884 5887 5892 5893 5895 5898 5899 5901 5903 5904 5905 5906 5908 5910 5911 5912 5913
5909 5909 5907 5904 5902 5900 5898 5898 5903 5904 5903 5902 5901 5902 5896 5891 5889 5886 5882 5879 5876 5872 5871 5872 5873 5874 5874 5876 5878 5881 5883 5885 5887 5889 5892 5894 5896 5898 5900 5901 5903 5904 5906 5908 5910 5911 5912 5913 5914
5911 5910 5908 5904 5904 5900 5898 5901 5899 5906 5905 5902 5902 5902 5898 5890 5886 5884 5882 5879 5876 5875 5873 5873 5874 5875 5875 5877 5879 5881 5883 5886 5888 5890 5892 5893 5896 5898 5900 5902 5903 5904 5906 5908 5910 5912 5913 5914 5916
5911 5910 5908 5905 5904 5902 5901 5896 5897 5907 5908 5906 5902 5901 5896 5890 5884 5885 5884 5882 5878 5877 5877 5876 5876 5876 5877 5877 5879 5881 5883 5886 5889 5891 5893 5895 5897 5899 5901 5902 5902 5904 5905 5907 5910 5912 5913 5914 5917
5911 5909 5909 5902 5903 5904 5900 5897 5899 5901 5905 5904 5904 5901 5901 5896 5891 5887 5885 5883 5881 5878 5876 5876 5876 5876 5877 5878 5880 5881 5883 5885 5889 5892 5894 5896 5898 5899 5901 5903 5903 5905 5906 5906 5909 5910 5914 5915 5917
5910 5909 5907 5907 5902 5902 5902 5903 5903 5899 5900 5902 5906 5903 5902 5901 5896 5890 5886 5883 5882 5880 5877 5874 5875 5876 5878 5879 5880 5881 5883 5885 5889 5891 5893 5895 5897 5899 5901 5903 5904 5905 5906 5908 5909 5910 5912 5915 5916
5908 5907 5906 5907 5904 5906 5905 5905 5901 5901 5900 5899 5905 5902 5901 5901 5899 5894 5891 5889 5888 5883 5879 5874 5873 5875 5877 5878 5879 5880 5882 5885 5888 5890 5891 5894 5896 5898 5900 5903 5903 5905 5907 5907 5910 5911 5911 5914 5915
5907 5905 5905 5903 5904 5904 5906 5907 5899 5899 5896 5898 5902 5903 5902 5902 5901 5898 5893 5890 5890 5886 5881 5874 5871 5874 5877 5879 5881 5882 5884 5885 5888 5890 5891 5893 5895 5897 5899 5902 5902 5904 5905 5907 5910 5911 5912 5913 5916
5906 5905 5902 5901 5903 5902 5902 5903 5903 5899 5900 5899 5900 5905 5904 5903 5901 5899 5895 5891 5890 5887 5882 5877 5874 5876 5878 5880 5881 5883 5885 5887 5888 5889 5889 5892 5893 5896 5898 5901 5901 5903 5904 5905 5908 5911 5912 5913 5915
5905 5901 5901 5901 5900 5899 5899 5900 5901 5899 5898 5896 5901 5904 5903 5901 5903 5902 5898 5895 5890 5889 5885 5883 5880 5879 5880 5881 5882 5885 5886 5887 5889 5890 5890 5892 5892 5894 5896 5898 5900 5901 5903 5905 5905 5909 5911 5912 5914
5905 5902 5898 5897 5899 5899 5898 5897 5898 5898 5899 5899 5901 5901 5901 5899 5901 5902 5901 5898 5893 5892 5891 5888 5886 5883 5883 5883 5883 5885 5885 5886 5886 5887 5889 5890 5892 5894 5894 5897 5899 5901 5902 5904 5905 5907 5909 5910 5911
5903 5901 5900 5898 5895 5893 5893 5895 5896 5898 5899 5898 5897 5898 5899 5897 5898 5899 5900 5901 5899 5894 5894 5892 5889 5887 5887 5885 5885 5885 5884 5883 5883 5884 5886 5888 5890 5891 5893 5895 5898 5900 5902 5903 5904 5905 5907 5909 5910
5902 5901 5898 5895 5893 5892 5892 5894 5895 5897 5898 5895 5894 5894 5894 5888 5894 5896 5897 5900 5902 5895 5895 5896 5891 5889 5888 5887 5886 5885 5883 5882 5882 5880 5882 5885 5887 5888 5890 5892 5895 5897 5898 5900 5901 5902 5904 5907 5908
5899 5898 5897 5893 5890 5887 5887 5888 5887 5889 5890 5889 5888 5890 5892 5892 5895 5895 5896 5896 5898 5898 5897 5896 5894 5892 5891 5889 5888 5886 5884 5883 5882 5880 5880 5881 5884 5885 5887 5888 5889 5892 5895 5896 5898 5900 5901 5904 5905
5895 5896 5895 5891 5888 5887 5884 5887 5885 5883 5885 5884 5883 5887 5888 5889 5889 5893 5892 5895 5894 5895 5897 5896 5895 5894 5894 5891 5889 5887 5884 5883 5882 5881 5882 5882 5882 5883 5884 5884 5886 5889 5891 5893 5895 5896 5898 5900 5902
5891 5890 5890 5889 5887 5882 5881 5880 5881 5881 5880 5880 5879 5879 5884 5884 5886 5887 5888 5890 5891 5891 5895 5895 5895 5894 5895 5893 5892 5890 5886 5884 5884 5883 5883 5883 5883 5882 5882 5882 5885 5886 5887 5889 5891 5893 5894 5896 5898
5887 5886 5885 5883 5879 5875 5876 5875 5875 5875 5876 5877 5873 5873 5873 5876 5880 5880 5885 5885 5885 5888 5891 5892 5893 5893 5893 5893 5892 5892 5890 5886 5885 5884 5884 5882 5882 5881 5880 5881 5883 5883 5884 5886 5886 5887 5888 5891 5893
5881 5877 5876 5877 5874 5871 5869 5870 5870 5869 5871 5872 5873 5867 5867 5868 5869 5871 5875 5877 5880 5882 5889 5890 5890 5891 5890 5891 5891 5889 5889 5887 5884 5882 5880 5880 5879 5878 5879 5880 5881 5880 5880 5881 5881 5882 5883 5885 5889
5874 5869 5867 5866 5866 5867 5862 5862 5860 5860 5861 5864 5867 5869 5867 5860 5858 5861 5865 5870 5875 5877 5880 5887 5886 5887 5888 5888 5888 5886 5885 5885 5885 5882 5880 5878 5877 5877 5877 5875 5875 5875 5875 5875 5877 5879 5880 5881 5884
5871 5867 5865 5863 5860 5859 5857 5854 5854 5851 5852 5856 5858 5860 5855 5854 5852 5855 5859 5861 5865 5870 5874 5877 5882 5882 5884 5885 5885 5884 5883 5882 5882 5881 5879 5878 5876 5875 5873 5871 5869 5869 5869 5870 5871 5874 5877 5880 5882
5866 5862 5860 5857 5855 5853 5856 5848 5846 5843 5844 5846 5850 5850 5850 5844 5843 5845 5848 5853 5855 5860 5865 5869 5874 5877 5879 5881 5881 5882 5881 5879 5880 5880 5878 5876 5875 5873 5872 5870 5868 5866 5865 5866 5866 5867 5869 5872 5876
5858 5855 5853 5852 5850 5849 5847 5843 5840 5840 5839 5840 5839 5839 5838 5838 5835 5835 5835 5838 5846 5853 5858 5859 5866 5872 5873 5877 5878 5879 5879 5878 5877 5877 5876 5874 5873 5872 5871 5868 5865 5863 5861 5860 5859 5861 5864 5867 5869
5852 5847 5844 5845 5844 5844 5841 5838 5836 5835 5835 5833 5831 5828 5823 5821 5820 5825 5827 5831 5837 5843 5847 5852 5856 5865 5868 5872 5874 5876 5876 5875 5874 5874 5873 5872 5871 5869 5867 5865 5862 5859 5858 5855 5852 5853 5858 5861 5864
5849 5845 5840 5833 5834 5834 5838 5834 5831 5830 5829 5827 5823 5816 5814 5809 5806 5810 5817 5823 5827 5831 5836 5841 5843 5849 5860 5866 5870 5872 5872 5872 5871 5871 5869 5869 5868 5867 5865 5864 5863 5861 5857 5855 5853 5852 5855 5857 5858
5844 5841 5838 5831 5830 5828 5830 5826 5825 5825 5824 5822 5818 5812 5808 5801 5798 5798 5804 5810 5819 5823 5826 5831 5832 5837 5846 5849 5856 5865 5866 5866 5866 5866 5866 5866 5865 5864 5864 5863 5861 5858 5855 5855 5855 5854 5855 5856 5857
5836 5832 5830 5828 5822 5819 5819 5819 5817 5819 5817 5815 5813 5807 5803 5798 5792 5794 5797 5803 5810 5812 5818 5823 5827 5827 5833 5840 5840 5848 5854 5858 5858 5859 5861 5860 5859 5859 5859 5859 5858 5856 5854 5853 5854 5853 5853 5853 5855
5834 5825 5822 5821 5817 5813 5807 5810 5808 5808 5806 5802 5802 5798 5796 5794 5791 5789 5795 5797 5803 5803 5807 5816 5818 5819 5821 5828 5833 5836 5839 5844 5848 5852 5852 5853 5854 5853 5853 5853 5853 5852 5851 5851 5851 5850 5850 5850 5850
5823 5820 5817 5813 5812 5809 5803 5801 5800 5799 5796 5793 5792 5790 5788 5788 5787 5788 5790 5796 5798 5794 5799 5798 5803 5810 5812 5816 5822 5826 5826 5830 5836 5842 5846 5844 5845 5845 5845 5845 5847 5848 5847 5847 5847 5847 5846 5846 5845